STARLINK-2326, 47870

Orbit data source: Space-Track

STARLINK-2326, 47870 is a payload satellite owned by SpaceX/Seattle (US) in LEO that was launched on Sun, 14 Mar 2021 UTC via an FALCON 9 launch vehicle from the Air Force Eastern Test Range (AFETR). Payload-class satellites include a variety of spacecraft equipped with specific instruments for various scientific and technological missions. These include communications satellites like Starlink; space stations such as the ISS; scientific satellites like the Hubble; Earth observation satellites from companies like Planet Labs, Umbra, and HawkEye 360; GPS; miniature CubeSats for education and research; and military/defense satellites.

Loading next visibility...
Identifier
47870, 2021-021L
Orbit
LEO
Country
Flag of USUS
Related business
Manufacturer
SpaceX/Seattle
Mission
Operational Commercial Communications
Bus & Motor
STARLINK, Unknown motor
Mass
260 kg wet, ~248 kg dry
Launch date (UTC)
2021-03-14 (5 years ago)
Launch vehicle
FALCON 9
Launch site
Air Force Eastern Test Range (AFETR)
Object type
Payload
Rocket body
Debris
Shape & HBR
Box + 1 Pan, 10.1 m
Radar Cross Section
13.562 m², Large (>1 m²)

Expand to show TLE details & history
Last TLE update: 2 days ago

TLE from 2 days ago
0 STARLINK-2326
1 47870U 21021L   26171.35483571 -.00003543  00000-0 -10246-3 0  9998
2 47870  53.1576 163.3618 0000977 105.1551 254.9558 15.31696010291691
Epoch: 2026-06-20T08:30Z
TLE epoch observation values (Epoch: 2026-06-20T08:30:57.805Z)
Latitude
-0.00005°
Longitude
127.05025°
Altitude
471.826 km
Speed
7.631 km/s
True Right ascension
10h 53m 26s
True Declination
0° 00' 00"
Sunlit
Object was in daylight at epoch
Visualization orbit readout
Latitude
Unknown
Longitude
Unknown
Altitude
Unknown
Speed
Unknown
Apparent Right ascension
Unknown
Apparent Declination
Unknown
Sunlit
N/A
Visualization observer readout
Local Sidereal Time
21:30:06
Azimuth
Unknown
Elevation
Unknown
Doppler factor
Unknown
Orbital elements
Apogee altitude
471.678 km
Perigee altitude
470.34 km
Semi-major axis
6,849.146 km
Eccentricity
0.0001
Inclination
53.1576°
RAAN
163.3618°
Arg. of periapsis
105.1551°
True anomaly
254.94499°
Mean anomaly
254.9558°
Eccentric anomaly
254.95039°
Mean motion
3.82903 °/min
Orbital period
94.02 mins
BSTAR
-0.00010246
Loading maneuver chart data...
Computing Atmospheric mass density...

Documentation

Showing up to 5 results
|